Weather History for KANB - March, 2013

Change the Weather History Date:

Sunday, March 24, 2013

  Actual Average Record
Temperature  
Mean Temperature 54 °F 56 °F  
Max Temperature 66 °F 69 °F 84 °F (2007)
Min Temperature 41 °F 44 °F 24 °F (1968)
Degree Days  
Heating Degree Days 11    
Month to date heating degree days 335  
Since 1 July heating degree days 2398  
Growing Degree Days 4 (Base 50)    
Moisture  
Dew Point 47 °F    
Average Humidity 73    
Maximum Humidity 93    
Minimum Humidity 53    
Precipitation  
Precipitation 0.28 in 0.15 in 2.29 in (1994)
Month to date precipitation 3.64 3.90  
Year to date precipitation 17.59 13.50  
Sea Level Pressure  
Sea Level Pressure 29.65 in    
Wind  
Wind Speed 11 mph (NNE)    
Max Wind Speed 29 mph    
Max Gust Speed 39 mph    
Visibility 9 miles    
Events Rain , Thunderstorm    
T = Trace of Precipitation, MM = Missing Value Source: NWS Daily Summary

Daily Weather History Graph

Daily Weather History Graph

Search for Another Location

Airport or City:

Trip Planner

Search our weather history database for the weather conditions in past years. The results will help you decide how hot, cold, wet, or windy it might be!

Date:

Astronomy

Mar. 24, 2013 Rise Set
Actual Time 6:41 AM CDT 6:58 PM CDT
Civil Twilight 6:16 AM CDT 7:23 PM CDT
Nautical Twilight 5:47 AM CDT 7:52 PM CDT
Astronomical Twilight 5:18 AM CDT 8:21 PM CDT
Moon 4:31 PM CDT (3/24) 4:44 AM CDT (3/24)
Length of Visible Light 13h 06m
Length of Day
12h 16m
Waxing Gibbous, 92% of the Moon is Illuminated
Mar 24
Waxing Gibbous
Mar 27
Full
Apr 2
Last Quarter
Apr 10
New
Apr 18
First Quarter

Hourly Weather History & Observations

Time (CDT) Temp. Windchill Dew Point Humidity Pressure Visibility Wind Dir Wind Speed Gust Speed Precip Events Conditions
12:16 AM 55.4 °F - 51.8 °F 88% 29.76 in 1.8 mi NW 11.5 mph 23.0 mph 0.21 in Rain , Thunderstorm Heavy Thunderstorms and Rain
12:28 AM 53.6 °F - 51.8 °F 94% 29.72 in 2.0 mi Variable 6.9 mph 16.1 mph 0.37 in Rain , Thunderstorm Heavy Rain
12:38 AM 55.4 °F - 51.8 °F 88% 29.77 in 5.0 mi WNW 8.1 mph 18.4 mph 0.41 in Rain , Thunderstorm Rain
12:45 AM 53.6 °F - 51.8 °F 94% 29.72 in 3.0 mi North 13.8 mph 23.0 mph 0.47 in Rain Heavy Rain
12:53 AM 53.1 °F - 51.1 °F 93% 29.75 in 4.0 mi North 11.5 mph 21.9 mph 0.50 in Rain , Thunderstorm Rain
1:16 AM 53.6 °F - 51.8 °F 94% 29.69 in 4.0 mi ENE 11.5 mph 17.3 mph 0.15 in Rain , Thunderstorm Thunderstorms and Rain
1:30 AM 53.6 °F - 51.8 °F 94% 29.68 in 8.0 mi ENE 8.1 mph - 0.17 in Rain Light Rain
1:44 AM 53.6 °F - 51.8 °F 94% 29.65 in 10.0 mi East 12.7 mph 18.4 mph 0.19 in Rain Light Rain
1:53 AM 53.1 °F - 51.1 °F 93% 29.63 in 10.0 mi ENE 12.7 mph 19.6 mph 0.19 in   Overcast
2:35 AM 53.6 °F - 51.8 °F 94% 29.63 in 10.0 mi ENE 10.4 mph 19.6 mph N/A   Overcast
2:53 AM 53.1 °F - 50.0 °F 89% 29.60 in 10.0 mi ENE 15.0 mph 20.7 mph 0.00 in Rain Light Rain
3:03 AM 53.6 °F - 50.0 °F 88% 29.59 in 9.0 mi ENE 12.7 mph 21.9 mph 0.01 in Rain , Thunderstorm Light Rain
3:18 AM 51.8 °F - 48.2 °F 88% 29.59 in 10.0 mi ENE 12.7 mph 19.6 mph 0.02 in Thunderstorm Overcast
3:26 AM 51.8 °F - 48.2 °F 88% 29.57 in 10.0 mi ENE 13.8 mph 20.7 mph 0.02 in   Overcast
3:53 AM 52.0 °F - 48.9 °F 89% 29.64 in 9.0 mi NNW 11.5 mph 18.4 mph 0.03 in Rain , Thunderstorm Light Thunderstorms and Rain
4:17 AM 51.8 °F - 48.2 °F 88% 29.65 in 10.0 mi North 8.1 mph - 0.05 in Rain , Thunderstorm Light Thunderstorms and Rain
4:30 AM 51.8 °F - 48.2 °F 88% 29.63 in 10.0 mi NE 6.9 mph - 0.05 in   Overcast
4:51 AM 51.8 °F - 48.2 °F 88% 29.63 in 7.0 mi ENE 4.6 mph - 0.05 in Rain , Thunderstorm Light Rain
4:53 AM 51.1 °F - 48.9 °F 92% 29.64 in 8.0 mi NE 3.5 mph - 0.05 in Rain , Thunderstorm Light Rain
5:09 AM 51.8 °F - 48.2 °F 88% 29.63 in 10.0 mi ENE 3.5 mph - 0.00 in   Overcast
5:53 AM 51.1 °F - 48.0 °F 89% 29.61 in 10.0 mi ENE 4.6 mph - 0.00 in   Mostly Cloudy
6:53 AM 50.0 °F - 48.0 °F 93% 29.61 in 10.0 mi NE 4.6 mph - 0.01 in   Mostly Cloudy
7:53 AM 51.1 °F - 48.0 °F 89% 29.61 in 10.0 mi ENE 6.9 mph - N/A   Overcast
8:53 AM 53.1 °F - 48.0 °F 83% 29.64 in 10.0 mi NE 5.8 mph - N/A   Overcast
9:02 AM 53.6 °F - 48.2 °F 82% 29.64 in 10.0 mi East 6.9 mph - N/A   Overcast
9:53 AM 54.0 °F - 48.9 °F 83% 29.63 in 10.0 mi East 8.1 mph - N/A   Overcast
10:53 AM 55.9 °F - 50.0 °F 80% 29.62 in 10.0 mi Variable 4.6 mph - N/A   Overcast
11:08 AM 55.4 °F - 50.0 °F 82% 29.62 in 10.0 mi ENE 3.5 mph - N/A   Overcast
11:53 AM 59.0 °F - 50.0 °F 72% 29.62 in 10.0 mi Calm Calm - N/A   Overcast
12:53 PM 63.0 °F - 53.1 °F 70% 29.60 in 10.0 mi Variable 3.5 mph - N/A   Scattered Clouds
1:53 PM 64.0 °F - 53.1 °F 67% 29.57 in 10.0 mi SW 10.4 mph - N/A   Overcast
2:53 PM 64.0 °F - 53.1 °F 67% 29.53 in 10.0 mi WSW 11.5 mph - N/A   Overcast
3:34 PM 62.6 °F - 53.6 °F 72% 29.54 in 10.0 mi SW 15.0 mph 21.9 mph N/A   Overcast
3:53 PM 61.0 °F - 53.1 °F 75% 29.55 in 10.0 mi SW 18.4 mph 26.5 mph N/A   Overcast
4:53 PM 57.0 °F - 48.9 °F 74% 29.58 in 10.0 mi West 21.9 mph 34.5 mph 0.00 in   Mostly Cloudy
5:07 PM 55.4 °F - 46.4 °F 72% 29.59 in 10.0 mi WSW 23.0 mph 35.7 mph N/A   Mostly Cloudy
5:53 PM 55.9 °F - 41.0 °F 57% 29.63 in 10.0 mi WSW 24.2 mph 34.5 mph N/A   Scattered Clouds
6:53 PM 54.0 °F - 42.1 °F 64% 29.65 in 10.0 mi WSW 13.8 mph 24.2 mph N/A   Mostly Cloudy
7:53 PM 50.0 °F - 35.1 °F 57% 29.72 in 10.0 mi West 18.4 mph 31.1 mph N/A   Mostly Cloudy
8:53 PM 46.0 °F 39.6 °F 30.9 °F 56% 29.77 in 10.0 mi West 15.0 mph 20.7 mph N/A   Overcast
9:53 PM 44.1 °F 37.4 °F 30.0 °F 58% 29.81 in 10.0 mi West 13.8 mph 26.5 mph N/A   Overcast
10:53 PM 43.0 °F 36.4 °F 28.0 °F 56% 29.82 in 10.0 mi West 12.7 mph 20.7 mph N/A   Overcast
11:53 PM 42.1 °F 34.5 °F 27.0 °F 55% 29.83 in 10.0 mi West 15.0 mph 24.2 mph N/A   Overcast